カタログに戻る

STARLINK-32742

運用中通信VLEO
NORAD 62605·PAYLOAD·🇺🇸 United States

打ち上げ Jan 13, 2025 から Cape Canaveral Space Force Station

Loading…

次のパス (今後24時間)

TLE

最新Source: CelesTrak SupGP

元期: Sep 14, 2026, 22:07 UTC

1 62605C 25008U   26257.92201389  .00012536  00000+0  45402-3 0  2571
2 62605  43.0016 288.9537 0001663 267.6186 259.3229 15.27573207    11

AllMySatでSTARLINK-32742をリアルタイム追跡

Download on the App Store